Location: Bennemühlen
(52.5740°N, 9.7135°E)
Time: 18:59:28
(UTC+00:00)

ISS - Pass Details

Date: 22 January 2026
Orbit: 413 x 429 km, 51.6° (Epoch: 11 February)

Event Time Altitude Azimuth Distance (km) Brightness Sun altitude
Rises 18:26:05 0° 279° (W) 2,368 1.4 -23.4°
Reaches altitude 10° 18:28:12 10° 275° (W) 1,506 0.1 -23.7°
Enters shadow 18:30:36 39° 250° (WSW) 645 -2.4 -24.1°
